Regional Weather Roundup
Issued by NWS

Home | Current Version | Previous Version | Text Only | Print | Product List | Glossary Off
Versions: 1 2 3 4 5 6 7 8 9 10 11 12 13 14 15 16 17 18 19 20 21 22 23 24 25 26 27 28 29 30 31 32 33 34 35 36 37 38 39 40 41 42 43 44 45 46 47 48 49 50

852
ASUS45 KBOI 290010
RWRID

IDAHO REGIONAL WEATHER ROUNDUP
NATIONAL WEATHER SERVICE BOISE ID
600 PM MDT THU APR 28 2016

NOTE: "FAIR" INDICATES FEW OR NO CLOUDS BELOW 12000 FEET
WITH NO SIGNIFICANT WEATHER AND/OR OBSTRUCTIONS TO VISIBILITY

IDZ012-014-290100-
SOUTHWEST IDAHO


CITY           SKY/WX    TMP DP  RH WIND       PRES   REMARKS
BOISE          SUNNY     67  31  26 NW26G33   29.78S
CALDWELL       SUNNY     67  34  29 NW17      29.82S
MOUNTAIN HOME  MOSUNNY   67  33  28 NW25G33   29.77S
$$

IDZ016-017-290100-
SOUTHCENTRAL IDAHO


CITY           SKY/WX    TMP DP  RH WIND       PRES   REMARKS
BURLEY         MOSUNNY   58  34  40 NW7       29.79S
JEROME         PTSUNNY   60  36  40 S9        29.80F
TWIN FALLS     PTSUNNY   58  36  43 W8        29.81S
$$

IDZ019>023-290100-
SOUTHEAST IDAHO


CITY           SKY/WX    TMP DP  RH WIND       PRES   REMARKS
IDAHO FALLS    CLOUDY    59  26  28 N16       29.81R
POCATELLO      CLOUDY    61  29  29 N17       29.80R
REXBURG        CLOUDY    57  25  29 VRB6      29.80S
$$

IDZ006-010-011-018-031-032-290100-
CENTRAL IDAHO MOUNTAINS


CITY           SKY/WX    TMP DP  RH WIND       PRES   REMARKS
MCCALL         CLOUDY    49  31  49 N9G18     29.89S
HAILEY         PTSUNNY   46  37  71 SE10      29.85R
STANLEY          N/A     47  24  40 N7        29.88S
SALMON         CLOUDY    50  30  46 E5        29.91S
CHALLIS        CLOUDY    50  27  40 N10       29.87R
$$

IDZ002-004-006-007-026-290100-
NORTHERN IDAHO


CITY           SKY/WX    TMP DP  RH WIND       PRES   REMARKS
LEWISTON       CLOUDY    60  44  55 SE9       29.93F
LOWELL           N/A     59  41  51 SE7       29.92S
COEUR D`ALENE  PTSUNNY   63  36  36 E8        29.92S
MULLAN PASS    CLOUDY    38  30  73 VRB3      29.98F
$$




USA.gov is the U.S. government's official web portal to all federal, state and local government web resources and services.